Time,TemperatureF,DewpointF,PressureIn,WindDirection,WindDirectionDegrees,WindSpeedMPH,WindSpeedGustMPH,Humidity,HourlyPrecipIn,Conditions,Clouds,dailyrainin,SoftwareType,DateUTC
2013-04-02 00:03:00,42.3,34.9,30.10,West,270,1.1,2.7,75,0.00,,,0.00,WUHU216HW,2013-04-02 07:03:00,
2013-04-02 00:08:00,42.1,34.7,30.10,North,0,0.0,2.2,75,0.00,,,0.00,WUHU216HW,2013-04-02 07:08:00,
2013-04-02 00:13:00,42.1,34.7,30.10,WNW,293,0.9,2.2,75,0.00,,,0.00,WUHU216HW,2013-04-02 07:13:00,
2013-04-02 00:18:00,42.1,34.7,30.10,West,270,2.5,2.5,75,0.00,,,0.00,WUHU216HW,2013-04-02 07:18:00,
2013-04-02 00:23:00,41.9,34.9,30.10,WNW,293,0.4,2.5,76,0.00,,,0.00,WUHU216HW,2013-04-02 07:23:00,
2013-04-02 00:28:00,41.9,34.9,30.11,WNW,293,2.0,2.0,76,0.00,,,0.00,WUHU216HW,2013-04-02 07:28:00,
2013-04-02 00:33:00,41.8,35.0,30.11,SW,225,2.7,4.3,77,0.00,,,0.00,WUHU216HW,2013-04-02 07:33:00,
2013-04-02 00:38:00,41.8,35.0,30.11,West,270,1.8,4.3,77,0.00,,,0.00,WUHU216HW,2013-04-02 07:38:00,
2013-04-02 00:43:00,41.6,34.8,30.11,SSW,203,0.7,2.0,77,0.00,,,0.00,WUHU216HW,2013-04-02 07:43:00,
2013-04-02 00:48:00,41.6,34.8,30.11,WNW,293,0.0,1.8,77,0.00,,,0.00,WUHU216HW,2013-04-02 07:48:00,
2013-04-02 00:53:00,41.4,34.4,30.11,North,0,0.0,1.8,76,0.00,,,0.00,WUHU216HW,2013-04-02 07:53:00,
2013-04-02 00:58:00,41.4,34.7,30.11,NNW,338,0.2,1.8,77,0.00,,,0.00,WUHU216HW,2013-04-02 07:58:00,
2013-04-02 01:03:00,41.4,34.4,30.11,WNW,293,0.2,1.1,76,0.00,,,0.00,WUHU216HW,2013-04-02 08:03:00,
2013-04-02 01:08:00,41.4,34.7,30.12,West,270,0.4,2.7,77,0.00,,,0.00,WUHU216HW,2013-04-02 08:08:00,
2013-04-02 01:14:00,41.2,34.5,30.12,WSW,248,0.4,3.4,77,0.00,,,0.00,WUHU216HW,2013-04-02 08:14:00,
2013-04-02 01:19:00,41.2,34.5,30.12,North,0,1.3,3.4,77,0.00,,,0.00,WUHU216HW,2013-04-02 08:19:00,
2013-04-02 01:24:00,41.0,34.3,30.12,WNW,293,1.1,2.2,77,0.00,,,0.00,WUHU216HW,2013-04-02 08:24:00,
2013-04-02 01:29:00,40.9,34.1,30.12,West,270,2.2,2.2,77,0.00,,,0.00,WUHU216HW,2013-04-02 08:29:00,
2013-04-02 01:34:00,40.9,34.5,30.12,North,0,1.1,3.6,78,0.00,,,0.00,WUHU216HW,2013-04-02 08:34:00,
2013-04-02 01:39:00,40.7,34.7,30.12,NNW,338,1.3,3.6,79,0.00,,,0.00,WUHU216HW,2013-04-02 08:39:00,
2013-04-02 01:44:00,40.7,34.7,30.12,WNW,293,2.7,2.7,79,0.00,,,0.00,WUHU216HW,2013-04-02 08:44:00,
2013-04-02 01:49:00,40.7,34.7,30.12,NW,315,0.2,3.4,79,0.00,,,0.00,WUHU216HW,2013-04-02 08:49:00,
2013-04-02 01:54:00,40.7,34.7,30.12,WNW,293,1.1,3.4,79,0.00,,,0.00,WUHU216HW,2013-04-02 08:54:00,
2013-04-02 01:59:00,40.5,34.5,30.12,WNW,293,1.6,1.6,79,0.00,,,0.00,WUHU216HW,2013-04-02 08:59:00,
2013-04-02 02:04:00,40.7,34.7,30.12,WSW,248,1.8,1.8,79,0.00,,,0.00,WUHU216HW,2013-04-02 09:04:00,
2013-04-02 02:09:00,40.5,34.5,30.12,North,0,0.4,1.8,79,0.00,,,0.00,WUHU216HW,2013-04-02 09:09:00,
2013-04-02 02:14:00,40.3,34.3,30.12,NW,315,0.9,2.7,79,0.00,,,0.00,WUHU216HW,2013-04-02 09:14:00,
2013-04-02 02:19:00,40.3,34.3,30.12,West,270,1.3,2.7,79,0.00,,,0.00,WUHU216HW,2013-04-02 09:19:00,
2013-04-02 02:24:00,40.3,34.3,30.12,NNW,338,0.4,1.8,79,0.00,,,0.00,WUHU216HW,2013-04-02 09:24:00,
2013-04-02 02:29:00,40.3,34.3,30.12,NW,315,1.8,1.8,79,0.00,,,0.00,WUHU216HW,2013-04-02 09:29:00,
2013-04-02 02:34:00,40.3,34.7,30.12,WSW,248,1.1,1.8,80,0.00,,,0.00,WUHU216HW,2013-04-02 09:34:00,
2013-04-02 02:39:00,40.3,34.3,30.12,SSW,203,0.0,1.6,79,0.00,,,0.00,WUHU216HW,2013-04-02 09:39:00,
2013-04-02 02:44:00,40.1,34.1,30.12,SE,135,0.2,1.8,79,0.00,,,0.00,WUHU216HW,2013-04-02 09:44:00,
2013-04-02 02:49:00,40.1,34.1,30.12,SE,135,0.2,2.0,79,0.00,,,0.00,WUHU216HW,2013-04-02 09:49:00,
2013-04-02 02:54:00,40.1,34.1,30.12,WSW,248,1.3,2.0,79,0.00,,,0.00,WUHU216HW,2013-04-02 09:54:00,
2013-04-02 02:59:00,40.0,33.9,30.12,NW,315,0.0,2.2,79,0.00,,,0.00,WUHU216HW,2013-04-02 09:59:00,
2013-04-02 03:04:00,39.8,33.9,30.12,SW,225,2.0,2.2,79,0.00,,,0.00,WUHU216HW,2013-04-02 10:04:00,
2013-04-02 03:09:00,39.8,33.9,30.12,NW,315,1.1,2.0,79,0.00,,,0.00,WUHU216HW,2013-04-02 10:09:00,
2013-04-02 03:14:00,39.6,33.7,30.12,SSW,203,3.4,3.4,79,0.00,,,0.00,WUHU216HW,2013-04-02 10:14:00,
2013-04-02 03:19:00,39.4,33.5,30.12,SW,225,0.2,3.8,79,0.00,,,0.00,WUHU216HW,2013-04-02 10:19:00,
2013-04-02 03:24:00,39.4,33.5,30.12,WSW,248,1.8,3.8,79,0.00,,,0.00,WUHU216HW,2013-04-02 10:24:00,
2013-04-02 03:29:00,39.2,33.3,30.12,SW,225,0.7,2.9,79,0.00,,,0.00,WUHU216HW,2013-04-02 10:29:00,
2013-04-02 03:34:00,39.2,33.3,30.12,SE,135,0.2,2.9,79,0.00,,,0.00,WUHU216HW,2013-04-02 10:34:00,
2013-04-02 03:39:00,39.1,33.1,30.12,SE,135,0.4,1.1,79,0.00,,,0.00,WUHU216HW,2013-04-02 10:39:00,
2013-04-02 03:45:00,39.1,33.1,30.12,East,90,0.7,0.7,79,0.00,,,0.00,WUHU216HW,2013-04-02 10:45:00,
2013-04-02 03:50:00,38.9,32.9,30.12,NE,45,0.4,0.7,79,0.00,,,0.00,WUHU216HW,2013-04-02 10:50:00,
2013-04-02 03:55:00,38.9,32.9,30.12,SW,225,1.3,2.2,79,0.00,,,0.00,WUHU216HW,2013-04-02 10:55:00,
2013-04-02 04:00:00,38.9,32.9,30.12,North,0,1.8,2.5,79,0.00,,,0.00,WUHU216HW,2013-04-02 11:00:00,
2013-04-02 04:05:00,38.7,32.8,30.12,NNW,338,0.4,3.8,79,0.00,,,0.00,WUHU216HW,2013-04-02 11:05:00,
2013-04-02 04:10:00,38.7,32.8,30.12,NNW,338,0.4,3.8,79,0.00,,,0.00,WUHU216HW,2013-04-02 11:10:00,
2013-04-02 04:15:00,38.5,32.6,30.12,SE,135,1.1,2.5,79,0.00,,,0.00,WUHU216HW,2013-04-02 11:15:00,
2013-04-02 04:20:00,38.5,32.9,30.12,NW,315,0.7,2.7,80,0.00,,,0.00,WUHU216HW,2013-04-02 11:20:00,
2013-04-02 04:25:00,38.5,32.9,30.12,WSW,248,0.9,4.5,80,0.00,,,0.00,WUHU216HW,2013-04-02 11:25:00,
2013-04-02 04:30:00,38.5,32.9,30.12,NNW,338,0.9,4.5,80,0.00,,,0.00,WUHU216HW,2013-04-02 11:30:00,
2013-04-02 04:35:00,38.5,32.9,30.12,SW,225,0.4,1.3,80,0.00,,,0.00,WUHU216HW,2013-04-02 11:35:00,
2013-04-02 04:40:00,38.5,32.9,30.12,SW,225,1.1,1.8,80,0.00,,,0.00,WUHU216HW,2013-04-02 11:40:00,
2013-04-02 04:45:00,38.5,32.9,30.12,WNW,293,0.7,1.8,80,0.00,,,0.00,WUHU216HW,2013-04-02 11:45:00,
2013-04-02 04:50:00,38.5,32.9,30.12,NNW,338,0.0,1.1,80,0.00,,,0.00,WUHU216HW,2013-04-02 11:50:00,
2013-04-02 04:55:00,38.5,32.9,30.12,SW,225,0.4,2.5,80,0.00,,,0.00,WUHU216HW,2013-04-02 11:55:00,
2013-04-02 05:00:00,38.3,32.8,30.12,South,180,0.7,2.5,80,0.00,,,0.00,WUHU216HW,2013-04-02 12:00:00,
2013-04-02 05:05:00,38.3,32.8,30.12,NW,315,1.1,1.1,80,0.00,,,0.00,WUHU216HW,2013-04-02 12:05:00,
2013-04-02 05:10:00,38.2,32.9,30.12,NNW,338,0.4,3.4,81,0.00,,,0.00,WUHU216HW,2013-04-02 12:10:00,
2013-04-02 05:15:00,38.2,32.9,30.12,North,0,1.8,3.4,81,0.00,,,0.00,WUHU216HW,2013-04-02 12:15:00,
2013-04-02 05:20:00,38.2,32.9,30.12,NE,45,1.1,2.0,81,0.00,,,0.00,WUHU216HW,2013-04-02 12:20:00,
2013-04-02 05:25:00,38.2,32.9,30.12,North,0,0.9,2.5,81,0.00,,,0.00,WUHU216HW,2013-04-02 12:25:00,
2013-04-02 05:30:00,38.2,32.9,30.12,NW,315,0.9,2.5,81,0.00,,,0.00,WUHU216HW,2013-04-02 12:30:00,
2013-04-02 05:35:00,38.2,32.9,30.12,WSW,248,0.4,2.5,81,0.00,,,0.00,WUHU216HW,2013-04-02 12:35:00,
2013-04-02 05:40:00,38.0,32.7,30.12,North,0,0.0,2.5,81,0.00,,,0.00,WUHU216HW,2013-04-02 12:40:00,
2013-04-02 05:46:00,38.0,32.4,30.12,NW,315,0.4,1.3,80,0.00,,,0.00,WUHU216HW,2013-04-02 12:46:00,
2013-04-02 05:51:00,38.0,32.7,30.12,North,0,0.4,1.8,81,0.00,,,0.00,WUHU216HW,2013-04-02 12:51:00,
2013-04-02 05:56:00,38.0,32.7,30.12,NW,315,0.4,1.8,81,0.00,,,0.00,WUHU216HW,2013-04-02 12:56:00,
2013-04-02 06:01:00,38.0,32.7,30.12,NW,315,0.7,2.7,81,0.00,,,0.00,WUHU216HW,2013-04-02 13:01:00,
2013-04-02 06:06:00,38.0,32.4,30.12,NNE,23,0.2,2.7,80,0.00,,,0.00,WUHU216HW,2013-04-02 13:06:00,
2013-04-02 06:11:00,38.0,32.4,30.12,NE,45,0.2,1.1,80,0.00,,,0.00,WUHU216HW,2013-04-02 13:11:00,
2013-04-02 06:16:00,37.8,32.2,30.13,NW,315,0.0,0.9,80,0.00,,,0.00,WUHU216HW,2013-04-02 13:16:00,
2013-04-02 06:21:00,37.8,32.5,30.13,West,270,0.0,0.9,81,0.00,,,0.00,WUHU216HW,2013-04-02 13:21:00,
2013-04-02 06:26:00,37.8,32.2,30.13,ENE,68,0.4,0.9,80,0.00,,,0.00,WUHU216HW,2013-04-02 13:26:00,
2013-04-02 06:31:00,37.8,32.2,30.13,NNE,23,0.4,1.3,80,0.00,,,0.00,WUHU216HW,2013-04-02 13:31:00,
2013-04-02 06:36:00,37.8,32.5,30.13,North,0,0.4,1.3,81,0.00,,,0.00,WUHU216HW,2013-04-02 13:36:00,
2013-04-02 06:41:00,37.8,32.2,30.13,ENE,68,2.0,2.0,80,0.00,,,0.00,WUHU216HW,2013-04-02 13:41:00,
2013-04-02 06:46:00,37.8,32.5,30.13,WSW,248,0.4,2.0,81,0.00,,,0.00,WUHU216HW,2013-04-02 13:46:00,
2013-04-02 06:51:00,37.8,32.5,30.13,WNW,293,1.1,1.1,81,0.00,,,0.00,WUHU216HW,2013-04-02 13:51:00,
2013-04-02 06:57:00,37.8,32.5,30.13,South,180,0.4,3.4,81,0.00,,,0.00,WUHU216HW,2013-04-02 13:57:00,
2013-04-02 07:02:00,37.8,32.5,30.13,West,270,0.2,3.4,81,0.00,,,0.00,WUHU216HW,2013-04-02 14:02:00,
2013-04-02 07:07:00,37.8,32.5,30.13,WNW,293,1.1,1.8,81,0.00,,,0.00,WUHU216HW,2013-04-02 14:07:00,
2013-04-02 07:12:00,37.8,32.5,30.13,West,270,1.3,2.5,81,0.00,,,0.00,WUHU216HW,2013-04-02 14:12:00,
2013-04-02 07:17:00,37.8,32.8,30.13,North,0,1.8,3.1,82,0.00,,,0.00,WUHU216HW,2013-04-02 14:17:00,
2013-04-02 07:22:00,37.6,32.6,30.13,North,0,1.1,3.1,82,0.00,,,0.00,WUHU216HW,2013-04-02 14:22:00,
2013-04-02 07:27:00,37.6,32.6,30.13,North,0,1.6,1.6,82,0.00,,,0.00,WUHU216HW,2013-04-02 14:27:00,
2013-04-02 07:32:00,37.8,32.8,30.13,West,270,1.3,2.5,82,0.00,,,0.00,WUHU216HW,2013-04-02 14:32:00,
2013-04-02 07:37:00,37.8,32.8,30.14,NNW,338,0.4,2.5,82,0.00,,,0.00,WUHU216HW,2013-04-02 14:37:00,
2013-04-02 07:42:00,37.8,33.1,30.13,NNW,338,0.7,2.7,83,0.00,,,0.00,WUHU216HW,2013-04-02 14:42:00,
2013-04-02 07:47:00,38.2,33.1,30.13,NW,315,1.1,4.5,82,0.00,,,0.00,WUHU216HW,2013-04-02 14:47:00,
2013-04-02 07:52:00,38.3,33.3,30.13,NNW,338,1.3,4.5,82,0.00,,,0.00,WUHU216HW,2013-04-02 14:52:00,
2013-04-02 07:57:00,38.5,33.5,30.14,NW,315,1.8,2.9,82,0.00,,,0.00,WUHU216HW,2013-04-02 14:57:00,
2013-04-02 08:02:00,38.9,33.8,30.14,WNW,293,1.1,2.5,82,0.00,,,0.00,WUHU216HW,2013-04-02 15:02:00,
2013-04-02 08:07:00,39.2,34.2,30.14,West,270,1.3,2.7,82,0.00,,,0.00,WUHU216HW,2013-04-02 15:07:00,
2013-04-02 08:12:00,39.4,34.4,30.14,NNE,23,0.2,2.7,82,0.00,,,0.00,WUHU216HW,2013-04-02 15:12:00,
2013-04-02 08:17:00,39.8,34.5,30.14,SW,225,0.4,1.8,81,0.00,,,0.00,WUHU216HW,2013-04-02 15:17:00,
2013-04-02 08:22:00,40.1,35.1,30.14,SSW,203,2.5,3.4,82,0.00,,,0.00,WUHU216HW,2013-04-02 15:22:00,
2013-04-02 08:27:00,40.7,35.6,30.14,SW,225,3.6,4.5,82,0.00,,,0.00,WUHU216HW,2013-04-02 15:27:00,
2013-04-02 08:32:00,41.2,35.7,30.14,SSW,203,6.3,7.8,81,0.00,,,0.00,WUHU216HW,2013-04-02 15:32:00,
2013-04-02 08:37:00,41.8,36.3,30.14,SSW,203,5.4,7.8,81,0.00,,,0.00,WUHU216HW,2013-04-02 15:37:00,
2013-04-02 08:42:00,42.5,36.7,30.14,South,180,6.5,7.2,80,0.00,,,0.00,WUHU216HW,2013-04-02 15:42:00,
2013-04-02 08:47:00,42.8,36.7,30.14,SW,225,4.3,7.2,79,0.00,,,0.00,WUHU216HW,2013-04-02 15:47:00,
2013-04-02 08:52:00,43.0,36.9,30.14,SW,225,5.6,6.9,79,0.00,,,0.00,WUHU216HW,2013-04-02 15:52:00,
2013-04-02 08:57:00,43.6,37.2,30.14,South,180,5.6,9.6,78,0.00,,,0.00,WUHU216HW,2013-04-02 15:57:00,
2013-04-02 09:02:00,43.9,37.2,30.14,SW,225,1.8,9.6,77,0.00,,,0.00,WUHU216HW,2013-04-02 16:02:00,
2013-04-02 09:07:00,44.5,37.7,30.14,NW,315,1.8,7.4,77,0.00,,,0.00,WUHU216HW,2013-04-02 16:07:00,
2013-04-02 09:12:00,44.6,37.9,30.14,SW,225,4.0,5.4,77,0.00,,,0.00,WUHU216HW,2013-04-02 16:12:00,
2013-04-02 09:18:00,45.0,37.5,30.14,WSW,248,4.0,5.4,75,0.00,,,0.00,WUHU216HW,2013-04-02 16:18:00,
2013-04-02 09:23:00,45.4,37.5,30.14,SSW,203,4.0,6.9,74,0.00,,,0.00,WUHU216HW,2013-04-02 16:23:00,
2013-04-02 09:28:00,45.9,38.4,30.14,South,180,2.0,8.5,75,0.00,,,0.00,WUHU216HW,2013-04-02 16:28:00,
2013-04-02 09:33:00,46.4,38.6,30.14,SW,225,8.5,9.2,74,0.00,,,0.00,WUHU216HW,2013-04-02 16:33:00,
2013-04-02 09:38:00,47.0,38.8,30.14,SW,225,2.9,9.2,73,0.00,,,0.00,WUHU216HW,2013-04-02 16:38:00,
2013-04-02 09:43:00,47.2,39.0,30.14,SW,225,2.0,8.5,73,0.00,,,0.00,WUHU216HW,2013-04-02 16:43:00,
2013-04-02 09:48:00,47.7,39.1,30.14,SSW,203,2.0,7.6,72,0.00,,,0.00,WUHU216HW,2013-04-02 16:48:00,
2013-04-02 09:53:00,48.2,39.3,30.14,WSW,248,4.3,8.9,71,0.00,,,0.00,WUHU216HW,2013-04-02 16:53:00,
2013-04-02 09:58:00,48.6,39.2,30.14,WSW,248,3.1,8.9,70,0.00,,,0.00,WUHU216HW,2013-04-02 16:58:00,
2013-04-02 10:03:00,48.6,38.9,30.14,SW,225,9.4,9.4,69,0.00,,,0.00,WUHU216HW,2013-04-02 17:03:00,
2013-04-02 10:08:00,49.0,39.3,30.14,SSW,203,4.0,9.4,69,0.00,,,0.00,WUHU216HW,2013-04-02 17:08:00,
2013-04-02 10:13:00,49.3,39.2,30.14,SW,225,2.0,7.4,68,0.00,,,0.00,WUHU216HW,2013-04-02 17:13:00,
2013-04-02 10:18:00,49.7,39.2,30.14,SW,225,6.3,9.8,67,0.00,,,0.00,WUHU216HW,2013-04-02 17:18:00,
2013-04-02 10:23:00,50.0,39.5,30.14,WSW,248,6.0,9.8,67,0.00,,,0.00,WUHU216HW,2013-04-02 17:23:00,
2013-04-02 10:28:00,50.4,39.1,30.14,SW,225,6.9,7.2,65,0.00,,,0.00,WUHU216HW,2013-04-02 17:28:00,
2013-04-02 10:33:00,50.6,39.6,30.14,SW,225,3.8,7.8,66,0.00,,,0.00,WUHU216HW,2013-04-02 17:33:00,
2013-04-02 10:38:00,50.8,39.8,30.14,SW,225,7.6,7.8,66,0.00,,,0.00,WUHU216HW,2013-04-02 17:38:00,
2013-04-02 10:43:00,51.1,39.7,30.14,SSW,203,4.7,7.6,65,0.00,,,0.00,WUHU216HW,2013-04-02 17:43:00,
2013-04-02 10:48:00,51.7,40.2,30.14,SSW,203,3.1,4.7,65,0.00,,,0.00,WUHU216HW,2013-04-02 17:48:00,
2013-04-02 10:54:00,52.0,39.8,30.13,South,180,4.7,7.6,63,0.00,,,0.00,WUHU216HW,2013-04-02 17:54:00,
2013-04-02 10:59:00,52.2,39.5,30.14,ESE,113,3.1,7.6,62,0.00,,,0.00,WUHU216HW,2013-04-02 17:59:00,
2013-04-02 11:04:00,52.2,39.5,30.14,SSW,203,0.4,4.9,62,0.00,,,0.00,WUHU216HW,2013-04-02 18:04:00,
2013-04-02 11:09:00,52.2,39.2,30.13,SW,225,1.8,4.9,61,0.00,,,0.00,WUHU216HW,2013-04-02 18:09:00,
2013-04-02 11:14:00,52.4,39.7,30.13,SW,225,3.8,4.0,62,0.00,,,0.00,WUHU216HW,2013-04-02 18:14:00,
2013-04-02 11:19:00,52.9,39.4,30.13,South,180,5.6,6.9,60,0.00,,,0.00,WUHU216HW,2013-04-02 18:19:00,
2013-04-02 11:24:00,53.5,40.0,30.13,South,180,3.4,6.9,60,0.00,,,0.00,WUHU216HW,2013-04-02 18:24:00,
2013-04-02 11:29:00,53.8,40.3,30.13,SSW,203,3.4,6.0,60,0.00,,,0.00,WUHU216HW,2013-04-02 18:29:00,
2013-04-02 11:34:00,54.4,40.3,30.13,SW,225,3.8,6.3,59,0.00,,,0.00,WUHU216HW,2013-04-02 18:34:00,
2013-04-02 11:39:00,54.7,40.7,30.13,SW,225,4.7,6.3,59,0.00,,,0.00,WUHU216HW,2013-04-02 18:39:00,
2013-04-02 11:44:00,54.7,39.7,30.13,SW,225,4.0,6.9,57,0.00,,,0.00,WUHU216HW,2013-04-02 18:44:00,
2013-04-02 11:49:00,54.7,39.7,30.13,SW,225,3.4,8.1,57,0.00,,,0.00,WUHU216HW,2013-04-02 18:49:00,
2013-04-02 11:54:00,54.9,39.4,30.13,SSE,158,3.4,8.1,56,0.00,,,0.00,WUHU216HW,2013-04-02 18:54:00,
2013-04-02 11:59:00,54.9,39.4,30.12,ENE,68,0.4,3.8,56,0.00,,,0.00,WUHU216HW,2013-04-02 18:59:00,
2013-04-02 12:04:00,54.9,39.4,30.12,South,180,4.0,4.0,56,0.00,,,0.00,WUHU216HW,2013-04-02 19:04:00,
2013-04-02 12:09:00,55.4,39.9,30.12,SSW,203,4.7,4.7,56,0.00,,,0.00,WUHU216HW,2013-04-02 19:09:00,
2013-04-02 12:14:00,55.8,39.3,30.12,SSW,203,3.4,4.7,54,0.00,,,0.00,WUHU216HW,2013-04-02 19:14:00,
2013-04-02 12:19:00,56.0,39.5,30.12,West,270,5.8,5.8,54,0.00,,,0.00,WUHU216HW,2013-04-02 19:19:00,
2013-04-02 12:24:00,55.8,38.9,30.12,WNW,293,0.9,5.8,53,0.00,,,0.00,WUHU216HW,2013-04-02 19:24:00,
2013-04-02 12:29:00,55.8,39.3,30.12,NW,315,1.6,5.8,54,0.00,,,0.00,WUHU216HW,2013-04-02 19:29:00,
2013-04-02 12:35:00,56.0,39.1,30.12,SSE,158,1.1,4.3,53,0.00,,,0.00,WUHU216HW,2013-04-02 19:35:00,
2013-04-02 12:40:00,56.7,40.2,30.11,SSW,203,5.6,5.6,54,0.00,,,0.00,WUHU216HW,2013-04-02 19:40:00,
2013-04-02 12:45:00,57.2,39.3,30.11,SW,225,4.0,5.6,51,0.00,,,0.00,WUHU216HW,2013-04-02 19:45:00,
2013-04-02 12:50:00,57.4,40.4,30.11,SW,225,5.1,6.0,53,0.00,,,0.00,WUHU216HW,2013-04-02 19:50:00,
2013-04-02 12:55:00,57.6,40.1,30.11,South,180,5.4,6.0,52,0.00,,,0.00,WUHU216HW,2013-04-02 19:55:00,
2013-04-02 13:00:00,58.0,40.0,30.11,WSW,248,6.3,6.3,51,0.00,,,0.00,WUHU216HW,2013-04-02 20:00:00,
2013-04-02 13:05:00,58.3,40.3,30.11,WNW,293,4.5,6.7,51,0.00,,,0.00,WUHU216HW,2013-04-02 20:05:00,
2013-04-02 13:10:00,58.1,40.1,30.11,NNE,23,1.8,6.7,51,0.00,,,0.00,WUHU216HW,2013-04-02 20:10:00,
2013-04-02 13:15:00,58.0,40.0,30.11,SSW,203,1.8,6.3,51,0.00,,,0.00,WUHU216HW,2013-04-02 20:15:00,
2013-04-02 13:20:00,58.0,40.5,30.11,SSW,203,4.5,5.4,52,0.00,,,0.00,WUHU216HW,2013-04-02 20:20:00,
2013-04-02 13:25:00,58.7,40.7,30.11,NE,45,0.4,5.4,51,0.00,,,0.00,WUHU216HW,2013-04-02 20:25:00,
2013-04-02 13:30:00,58.7,40.1,30.11,SSE,158,1.8,4.0,50,0.00,,,0.00,WUHU216HW,2013-04-02 20:30:00,
2013-04-02 13:35:00,58.7,40.1,30.10,ESE,113,2.0,4.9,50,0.00,,,0.00,WUHU216HW,2013-04-02 20:35:00,
2013-04-02 13:40:00,59.2,40.7,30.10,SSW,203,5.4,7.6,50,0.00,,,0.00,WUHU216HW,2013-04-02 20:40:00,
2013-04-02 13:45:00,59.8,41.1,30.10,SSW,203,2.9,7.6,50,0.00,,,0.00,WUHU216HW,2013-04-02 20:45:00,
2013-04-02 13:50:00,60.1,41.5,30.10,West,270,5.8,6.5,50,0.00,,,0.00,WUHU216HW,2013-04-02 20:50:00,
2013-04-02 13:56:00,59.9,39.6,30.10,WSW,248,1.6,6.5,47,0.00,,,0.00,WUHU216HW,2013-04-02 20:56:00,
2013-04-02 14:01:00,60.1,40.9,30.10,SW,225,6.3,6.3,49,0.00,,,0.00,WUHU216HW,2013-04-02 21:01:00,
2013-04-02 14:06:00,61.0,41.7,30.10,SW,225,4.7,7.2,49,0.00,,,0.00,WUHU216HW,2013-04-02 21:06:00,
2013-04-02 14:11:00,61.4,41.5,30.09,East,90,1.8,7.2,48,0.00,,,0.00,WUHU216HW,2013-04-02 21:11:00,
2013-04-02 14:16:00,61.2,41.3,30.09,ESE,113,2.2,4.0,48,0.00,,,0.00,WUHU216HW,2013-04-02 21:16:00,
2013-04-02 14:21:00,61.6,41.6,30.09,SW,225,0.9,5.1,48,0.00,,,0.00,WUHU216HW,2013-04-02 21:21:00,
2013-04-02 14:26:00,62.3,42.3,30.09,West,270,2.9,6.9,48,0.00,,,0.00,WUHU216HW,2013-04-02 21:26:00,
2013-04-02 14:31:00,63.0,42.9,30.09,South,180,2.0,6.9,48,0.00,,,0.00,WUHU216HW,2013-04-02 21:31:00,
2013-04-02 14:36:00,61.9,39.6,30.09,WNW,293,2.2,4.0,44,0.00,,,0.00,WUHU216HW,2013-04-02 21:36:00,
2013-04-02 14:41:00,61.2,40.7,30.09,North,0,0.0,4.0,47,0.00,,,0.00,WUHU216HW,2013-04-02 21:41:00,
2013-04-02 14:46:00,60.8,40.4,30.09,SE,135,1.1,3.8,47,0.00,,,0.00,WUHU216HW,2013-04-02 21:46:00,
2013-04-02 14:51:00,60.8,41.0,30.09,NNE,23,2.0,2.0,48,0.00,,,0.00,WUHU216HW,2013-04-02 21:51:00,
2013-04-02 14:57:00,60.7,40.8,30.08,NE,45,1.6,2.0,48,0.00,,,0.00,WUHU216HW,2013-04-02 21:57:00,
2013-04-02 15:01:00,60.3,39.3,30.09,NNW,338,4.7,4.7,46,0.00,,,0.00,WUHU216HW,2013-04-02 22:01:00,
2013-04-02 15:07:00,59.8,38.9,30.08,SW,225,2.7,6.3,46,0.00,,,0.00,WUHU216HW,2013-04-02 22:07:00,
2013-04-02 15:12:00,59.2,39.5,30.09,WNW,293,3.4,6.3,48,0.00,,,0.00,WUHU216HW,2013-04-02 22:12:00,
2013-04-02 15:17:00,59.2,40.1,30.08,NW,315,2.5,6.3,49,0.00,,,0.00,WUHU216HW,2013-04-02 22:17:00,
2013-04-02 15:22:00,59.4,39.7,30.09,West,270,6.0,6.0,48,0.00,,,0.00,WUHU216HW,2013-04-02 22:22:00,
2013-04-02 15:27:00,59.0,39.3,30.09,NW,315,2.0,6.0,48,0.00,,,0.00,WUHU216HW,2013-04-02 22:27:00,
2013-04-02 15:32:00,58.5,39.4,30.09,West,270,2.5,4.0,49,0.00,,,0.00,WUHU216HW,2013-04-02 22:32:00,
2013-04-02 15:37:00,58.1,39.2,30.09,NW,315,6.9,6.9,49,0.00,,,0.00,WUHU216HW,2013-04-02 22:37:00,
2013-04-02 15:42:00,57.8,39.3,30.09,NW,315,6.7,6.9,50,0.00,,,0.00,WUHU216HW,2013-04-02 22:42:00,
2013-04-02 15:47:00,58.0,40.0,30.09,WSW,248,2.0,6.7,51,0.00,,,0.00,WUHU216HW,2013-04-02 22:47:00,
2013-04-02 15:52:00,58.7,40.7,30.09,NE,45,4.5,4.9,51,0.00,,,0.00,WUHU216HW,2013-04-02 22:52:00,
2013-04-02 15:57:00,59.2,39.5,30.09,NNW,338,4.9,7.6,48,0.00,,,0.00,WUHU216HW,2013-04-02 22:57:00,
2013-04-02 16:02:00,58.7,39.6,30.09,NNW,338,2.5,7.6,49,0.00,,,0.00,WUHU216HW,2013-04-02 23:02:00,
2013-04-02 16:07:00,59.2,40.7,30.09,SSE,158,1.3,4.9,50,0.00,,,0.00,WUHU216HW,2013-04-02 23:07:00,
2013-04-02 16:12:00,59.6,41.0,30.09,NE,45,0.4,6.9,50,0.00,,,0.00,WUHU216HW,2013-04-02 23:12:00,
2013-04-02 16:17:00,59.9,41.3,30.08,West,270,2.5,6.9,50,0.00,,,0.00,WUHU216HW,2013-04-02 23:17:00,
2013-04-02 16:22:00,60.1,40.9,30.08,SSE,158,0.9,2.5,49,0.00,,,0.00,WUHU216HW,2013-04-02 23:22:00,
2013-04-02 16:27:00,60.1,40.3,30.08,West,270,3.4,5.4,48,0.00,,,0.00,WUHU216HW,2013-04-02 23:27:00,
2013-04-02 16:32:00,59.4,40.2,30.08,North,0,1.3,5.4,49,0.00,,,0.00,WUHU216HW,2013-04-02 23:32:00,
2013-04-02 16:37:00,59.2,40.1,30.08,West,270,2.5,4.7,49,0.00,,,0.00,WUHU216HW,2013-04-02 23:37:00,
2013-04-02 16:42:00,58.5,40.1,30.08,North,0,3.4,5.6,50,0.00,,,0.00,WUHU216HW,2013-04-02 23:42:00,
2013-04-02 16:47:00,58.1,39.7,30.08,East,90,1.3,7.8,50,0.00,,,0.00,WUHU216HW,2013-04-02 23:47:00,
2013-04-02 16:52:00,57.6,39.7,30.08,SE,135,0.4,7.8,51,0.00,,,0.00,WUHU216HW,2013-04-02 23:52:00,
2013-04-02 16:57:00,57.4,40.0,30.08,North,0,4.0,6.9,52,0.00,,,0.00,WUHU216HW,2013-04-02 23:57:00,
2013-04-02 17:02:00,57.6,40.1,30.08,North,0,2.0,4.0,52,0.00,,,0.00,WUHU216HW,2013-04-03 00:02:00,
2013-04-02 17:07:00,57.6,40.1,30.08,NW,315,2.2,3.8,52,0.00,,,0.00,WUHU216HW,2013-04-03 00:07:00,
2013-04-02 17:12:00,58.0,40.5,30.08,NW,315,3.6,3.8,52,0.00,,,0.00,WUHU216HW,2013-04-03 00:12:00,
2013-04-02 17:17:00,58.0,40.0,30.08,NE,45,2.9,5.4,51,0.00,,,0.00,WUHU216HW,2013-04-03 00:17:00,
2013-04-02 17:22:00,57.6,39.7,30.08,NNE,23,2.5,4.0,51,0.00,,,0.00,WUHU216HW,2013-04-03 00:22:00,
2013-04-02 17:28:00,57.6,40.1,30.08,NNE,23,3.8,4.0,52,0.00,,,0.00,WUHU216HW,2013-04-03 00:28:00,
2013-04-02 17:33:00,57.6,40.1,30.08,NW,315,6.3,6.3,52,0.00,,,0.00,WUHU216HW,2013-04-03 00:33:00,
2013-04-02 17:38:00,57.6,40.1,30.08,WNW,293,4.0,6.3,52,0.00,,,0.00,WUHU216HW,2013-04-03 00:38:00,
2013-04-02 17:43:00,57.4,40.0,30.08,NNW,338,2.0,4.7,52,0.00,,,0.00,WUHU216HW,2013-04-03 00:43:00,
2013-04-02 17:48:00,57.6,40.1,30.08,SSW,203,1.6,4.7,52,0.00,,,0.00,WUHU216HW,2013-04-03 00:48:00,
2013-04-02 17:53:00,57.4,40.0,30.08,NNE,23,2.9,4.7,52,0.00,,,0.00,WUHU216HW,2013-04-03 00:53:00,
2013-04-02 17:58:00,57.2,39.8,30.08,SSE,158,0.7,2.9,52,0.00,,,0.00,WUHU216HW,2013-04-03 00:58:00,
2013-04-02 18:03:00,57.1,39.6,30.08,NNW,338,2.7,7.8,52,0.00,,,0.00,WUHU216HW,2013-04-03 01:03:00,
2013-04-02 18:08:00,56.5,39.6,30.08,WSW,248,0.4,7.8,53,0.00,,,0.00,WUHU216HW,2013-04-03 01:08:00,
2013-04-02 18:13:00,56.5,39.6,30.08,NNW,338,4.0,7.4,53,0.00,,,0.00,WUHU216HW,2013-04-03 01:13:00,
2013-04-02 18:18:00,56.2,38.7,30.08,North,0,1.8,6.3,52,0.00,,,0.00,WUHU216HW,2013-04-03 01:18:00,
2013-04-02 18:23:00,55.8,38.3,30.08,East,90,0.4,4.5,52,0.00,,,0.00,WUHU216HW,2013-04-03 01:23:00,
2013-04-02 18:28:00,55.8,38.9,30.09,NW,315,1.1,4.0,53,0.00,,,0.00,WUHU216HW,2013-04-03 01:28:00,
2013-04-02 18:33:00,55.4,38.0,30.08,WNW,293,3.8,4.7,52,0.00,,,0.00,WUHU216HW,2013-04-03 01:33:00,
2013-04-02 18:38:00,55.3,38.4,30.08,NNE,23,2.5,4.7,53,0.00,,,0.00,WUHU216HW,2013-04-03 01:38:00,
2013-04-02 18:43:00,55.1,38.2,30.08,South,180,1.1,4.7,53,0.00,,,0.00,WUHU216HW,2013-04-03 01:43:00,
2013-04-02 18:48:00,55.1,38.2,30.08,NW,315,2.0,3.8,53,0.00,,,0.00,WUHU216HW,2013-04-03 01:48:00,
2013-04-02 18:53:00,54.9,38.0,30.09,NNW,338,1.1,3.4,53,0.00,,,0.00,WUHU216HW,2013-04-03 01:53:00,
2013-04-02 18:58:00,54.7,38.4,30.08,SSE,158,0.4,4.0,54,0.00,,,0.00,WUHU216HW,2013-04-03 01:58:00,
2013-04-02 19:03:00,54.4,38.0,30.08,WNW,293,0.4,4.0,54,0.00,,,0.00,WUHU216HW,2013-04-03 02:03:00,
2013-04-02 19:08:00,54.2,38.3,30.08,NNE,23,2.2,2.9,55,0.00,,,0.00,WUHU216HW,2013-04-03 02:08:00,
2013-04-02 19:13:00,54.0,38.2,30.08,WNW,293,1.8,5.8,55,0.00,,,0.00,WUHU216HW,2013-04-03 02:13:00,
2013-04-02 19:18:00,53.5,37.6,30.09,NW,315,2.2,5.8,55,0.00,,,0.00,WUHU216HW,2013-04-03 02:18:00,
2013-04-02 19:23:00,52.7,37.5,30.08,NNW,338,2.0,3.4,56,0.00,,,0.00,WUHU216HW,2013-04-03 02:23:00,
2013-04-02 19:28:00,52.2,36.9,30.09,North,0,2.5,2.5,56,0.00,,,0.00,WUHU216HW,2013-04-03 02:28:00,
2013-04-02 19:33:00,52.2,37.4,30.09,ENE,68,0.7,4.0,57,0.00,,,0.00,WUHU216HW,2013-04-03 02:33:00,
2013-04-02 19:38:00,52.0,37.2,30.09,ENE,68,0.4,4.0,57,0.00,,,0.00,WUHU216HW,2013-04-03 02:38:00,
2013-04-02 19:43:00,51.7,36.8,30.09,WSW,248,0.0,1.3,57,0.00,,,0.00,WUHU216HW,2013-04-03 02:43:00,
2013-04-02 19:49:00,51.5,36.6,30.09,North,0,0.2,1.8,57,0.00,,,0.00,WUHU216HW,2013-04-03 02:49:00,
2013-04-02 19:54:00,51.3,37.0,30.09,NE,45,1.1,1.8,58,0.00,,,0.00,WUHU216HW,2013-04-03 02:54:00,
2013-04-02 19:59:00,51.1,36.8,30.09,ENE,68,0.0,1.1,58,0.00,,,0.00,WUHU216HW,2013-04-03 02:59:00,
2013-04-02 20:04:00,50.9,36.6,30.09,NNE,23,0.4,0.9,58,0.00,,,0.00,WUHU216HW,2013-04-03 03:04:00,
2013-04-02 20:09:00,50.6,36.7,30.09,North,0,0.0,0.9,59,0.00,,,0.00,WUHU216HW,2013-04-03 03:09:00,
2013-04-02 20:14:00,50.2,36.5,30.09,NNE,23,0.0,0.7,59,0.00,,,0.00,WUHU216HW,2013-04-03 03:14:00,
2013-04-02 20:19:00,50.0,36.7,30.09,NNE,23,0.4,0.4,60,0.00,,,0.00,WUHU216HW,2013-04-03 03:19:00,
2013-04-02 20:24:00,49.9,37.0,30.10,NNE,23,0.9,0.9,61,0.00,,,0.00,WUHU216HW,2013-04-03 03:24:00,
2013-04-02 20:29:00,49.5,36.6,30.10,North,0,0.0,0.9,61,0.00,,,0.00,WUHU216HW,2013-04-03 03:29:00,
2013-04-02 20:34:00,49.3,36.8,30.10,NNE,23,0.0,0.7,62,0.00,,,0.00,WUHU216HW,2013-04-03 03:34:00,
2013-04-02 20:39:00,49.1,36.7,30.10,North,0,0.7,0.7,62,0.00,,,0.00,WUHU216HW,2013-04-03 03:39:00,
2013-04-02 20:44:00,49.0,36.6,30.10,North,0,0.0,0.7,62,0.00,,,0.00,WUHU216HW,2013-04-03 03:44:00,
2013-04-02 20:49:00,48.8,36.0,30.11,North,0,0.0,0.4,61,0.00,,,0.00,WUHU216HW,2013-04-03 03:49:00,
2013-04-02 20:54:00,48.6,35.8,30.11,North,0,0.2,0.7,61,0.00,,,0.00,WUHU216HW,2013-04-03 03:54:00,
2013-04-02 20:59:00,48.4,36.0,30.11,West,270,0.9,0.9,62,0.00,,,0.00,WUHU216HW,2013-04-03 03:59:00,
2013-04-02 21:00:00,48.4,36.0,30.11,West,270,0.9,0.9,62,0.00,,,0.00,WUHU216HW,2013-04-03 04:00:00,
2013-04-02 21:05:00,48.1,35.6,30.11,West,270,0.0,0.9,62,0.00,,,0.00,WUHU216HW,2013-04-03 04:05:00,
2013-04-02 21:10:00,47.9,35.5,30.12,WNW,293,0.0,0.4,62,0.00,,,0.00,WUHU216HW,2013-04-03 04:10:00,
2013-04-02 21:15:00,47.7,35.7,30.12,ENE,68,1.1,1.1,63,0.00,,,0.00,WUHU216HW,2013-04-03 04:15:00,
2013-04-02 21:21:00,47.5,35.6,30.12,NNE,23,0.2,1.1,63,0.00,,,0.00,WUHU216HW,2013-04-03 04:21:00,
2013-04-02 21:25:00,47.5,35.6,30.12,ESE,113,0.2,1.1,63,0.00,,,0.00,WUHU216HW,2013-04-03 04:25:00,
2013-04-02 21:31:00,47.3,35.4,30.12,SE,135,1.1,1.1,63,0.00,,,0.00,WUHU216HW,2013-04-03 04:31:00,
2013-04-02 21:36:00,47.2,35.2,30.12,SSW,203,0.7,1.1,63,0.00,,,0.00,WUHU216HW,2013-04-03 04:36:00,
2013-04-02 21:41:00,47.2,35.2,30.12,South,180,0.0,0.7,63,0.00,,,0.00,WUHU216HW,2013-04-03 04:41:00,
2013-04-02 21:46:00,47.0,35.4,30.12,ESE,113,1.3,1.3,64,0.00,,,0.00,WUHU216HW,2013-04-03 04:46:00,
2013-04-02 21:51:00,47.0,35.4,30.12,SE,135,0.4,1.3,64,0.00,,,0.00,WUHU216HW,2013-04-03 04:51:00,
2013-04-02 21:56:00,46.8,35.2,30.12,SE,135,2.0,2.0,64,0.00,,,0.00,WUHU216HW,2013-04-03 04:56:00,
2013-04-02 22:01:00,46.6,35.1,30.12,ESE,113,1.1,2.0,64,0.00,,,0.00,WUHU216HW,2013-04-03 05:01:00,
2013-04-02 22:06:00,46.4,34.9,30.12,East,90,0.7,1.1,64,0.00,,,0.00,WUHU216HW,2013-04-03 05:06:00,
2013-04-02 22:11:00,46.4,35.3,30.12,East,90,0.9,1.6,65,0.00,,,0.00,WUHU216HW,2013-04-03 05:11:00,
2013-04-02 22:16:00,46.4,35.3,30.12,ESE,113,1.8,2.0,65,0.00,,,0.00,WUHU216HW,2013-04-03 05:16:00,
2013-04-02 22:21:00,46.3,35.1,30.12,ENE,68,0.4,2.0,65,0.00,,,0.00,WUHU216HW,2013-04-03 05:21:00,
2013-04-02 22:26:00,46.3,35.1,30.12,ENE,68,0.9,1.1,65,0.00,,,0.00,WUHU216HW,2013-04-03 05:26:00,
2013-04-02 22:31:00,46.1,35.4,30.12,ENE,68,1.1,1.1,66,0.00,,,0.00,WUHU216HW,2013-04-03 05:31:00,
2013-04-02 22:36:00,45.9,35.2,30.12,ENE,68,0.7,1.1,66,0.00,,,0.00,WUHU216HW,2013-04-03 05:36:00,
2013-04-02 22:41:00,45.7,35.0,30.12,SSE,158,1.8,1.8,66,0.00,,,0.00,WUHU216HW,2013-04-03 05:41:00,
2013-04-02 22:46:00,45.7,35.0,30.12,South,180,2.2,2.2,66,0.00,,,0.00,WUHU216HW,2013-04-03 05:46:00,
2013-04-02 22:51:00,45.7,35.0,30.12,SE,135,0.0,2.2,66,0.00,,,0.00,WUHU216HW,2013-04-03 05:51:00,
2013-04-02 22:56:00,45.4,35.4,30.12,SE,135,0.0,0.4,68,0.00,,,0.00,WUHU216HW,2013-04-03 05:56:00,
2013-04-02 23:01:00,45.2,34.5,30.12,East,90,0.4,0.4,66,0.00,,,0.00,WUHU216HW,2013-04-03 06:01:00,
2013-04-02 23:06:00,45.0,34.7,30.12,NE,45,0.0,0.4,67,0.00,,,0.00,WUHU216HW,2013-04-03 06:06:00,
2013-04-02 23:11:00,44.8,34.9,30.12,South,180,0.7,0.9,68,0.00,,,0.00,WUHU216HW,2013-04-03 06:11:00,
2013-04-02 23:16:00,44.6,34.3,30.12,SSW,203,0.4,0.9,67,0.00,,,0.00,WUHU216HW,2013-04-03 06:16:00,
2013-04-02 23:21:00,44.5,34.6,30.12,SW,225,1.3,1.3,68,0.00,,,0.00,WUHU216HW,2013-04-03 06:21:00,
2013-04-02 23:26:00,44.3,34.4,30.12,SSW,203,5.4,5.4,68,0.00,,,0.00,WUHU216HW,2013-04-03 06:26:00,
2013-04-02 23:31:00,44.1,34.2,30.12,SSW,203,4.5,5.4,68,0.00,,,0.00,WUHU216HW,2013-04-03 06:31:00,
2013-04-02 23:36:00,43.9,34.0,30.12,ESE,113,0.0,4.5,68,0.00,,,0.00,WUHU216HW,2013-04-03 06:36:00,
2013-04-02 23:41:00,43.9,34.0,30.12,NW,315,0.0,1.3,68,0.00,,,0.00,WUHU216HW,2013-04-03 06:41:00,
2013-04-02 23:47:00,43.7,33.8,30.12,West,270,0.4,1.1,68,0.00,,,0.00,WUHU216HW,2013-04-03 06:47:00,
2013-04-02 23:52:00,43.6,33.8,30.12,West,270,0.0,0.4,68,0.00,,,0.00,WUHU216HW,2013-04-03 06:52:00,
2013-04-02 23:57:00,43.4,33.6,30.12,NNE,23,0.2,0.4,68,0.00,,,0.00,WUHU216HW,2013-04-03 06:57:00,